Regional Weather Roundup
Issued by NWS Burlington, VT

Home | Current Version | Previous Version | Text Only | Print | Product List | Glossary On
Versions: 1 2 3 4 5 6 7 8 9 10 11 12 13 14 15 16 17 18 19 20 21 22 23 24 25 26 27 28 29 30 31 32 33 34 35 36 37 38 39 40 41 42 43 44 45 46 47 48 49 50
000
ASUS41 KBTV 241110
RWRBTV
VERMONT REGIONAL WEATHER ROUNDUP
NATIONAL WEATHER SERVICE BURLINGTON VT
700 AM EDT THU APR 24 2014

NOTE: "FAIR" INDICATES FEW OR NO CLOUDS BELOW 12,000 FEET WITH NO
SIGNIFICANT WEATHER AND/OR OBSTRUCTIONS TO VISIBILITY.

* THESE REPORTS ARE NOT UNDER NWS QUALITY CONTROL AND/OR DO NOT
  REPORT WEATHER SUCH AS PRECIPITATION AND FOG.

VTZ001>019-241200-
_____VERMONT_____


CITY           SKY/WX    TMP DP  RH WIND       PRES   REMARKS
BURLINGTON     PTSUNNY   36  19  50 NW18G25   29.86R
MONTPELIER     CLOUDY    32  19  58 NW12G21   29.80R
MORRISVILLE    CLOUDY    34  19  54 NW16G26   29.82R
ST. JOHNSBURY*   N/A     35  21  56 MISG      29.74R
LYNDONVILLE*   CLOUDY    33  21  60 NW18G30   29.74S
MIDDLEBURY*    PTSUNNY   33  20  60 W6        29.84R
RUTLAND*       SUNNY     34  18  51 NW10G20   29.80R
SPRINGFIELD    SUNNY     37  16  42 W13G21    29.76R
HIGHGATE*      CLOUDY    38  24  56 W7        29.86R
NEWPORT*       CLOUDY    33  23  66 NW9G17    29.77S
BENNINGTON     SUNNY     36  14  40 NW7G20    29.82R
SUTTON*          N/A     30 N/A N/A MISG        N/A

_____LAKE CHAMPLAIN_____


CITY           SKY/WX    TMP DP  RH WIND       PRES   REMARKS
COLCHESTER RF*   N/A     36  23  60 N25         N/A
DIAMOND ISL*     N/A     36  18  48 NW6G18      N/A

$$

NYZ007-026>031-035-052-083-241200-
_____NORTHERN NEW YORK_____


CITY           SKY/WX    TMP DP  RH WIND       PRES   REMARKS
PLATTSBURGH    CLOUDY    35  17  47 NW14G24   29.87R
SARANAC LAKE   SUNNY     28  15  58 VRB7G17   29.86R
MASSENA        SUNNY     33  20  58 W10       29.99R
OGDENSBURG*    SUNNY     34  21  60 NW10G17   30.01R
POTSDAM*       SUNNY     34  21  60 NW6       29.99R
WATERTOWN      SUNNY     35  17  47 NW10      30.04R
FT DRUM        SUNNY     32  19  57 NW9       30.00R
ALBANY         SUNNY     38  15  39 W16G24    29.88R
GLENS FALLS    SUNNY     40  16  37 NW18G30   29.85R

$$
NHZ002-005-011-241200-
_____NEW HAMPSHIRE_____


CITY           SKY/WX    TMP DP  RH WIND       PRES   REMARKS
LEBANON        SUNNY     37  17  44 NW16G26   29.75R
KEENE          SUNNY     37  16  41 NW15G24   29.74R
MT WASHINGTON  FOG       12  12 100 NW72        N/A  VSB 0   WCI -17
PLYMOUTH         N/A     36  22  56 NW17G24   29.68F
WHITEFIELD     CLOUDY    35  23  61 W7        29.71R

$$

_____REGIONAL QUEBEC LOCATIONS_____


CITY           SKY/WX    TMP DP  RH WIND       PRES   REMARKS
MONTREAL       MOSUNNY   36  19  51 NW10      29.89R
QUEBEC CITY    PTSUNNY   37  27  65 NW14      29.72R
SHERBROOKE     LGT RAIN  34  27  75 NW18G25   29.73R

_____REGIONAL ONTARIO LOCATIONS_____


CITY           SKY/WX    TMP DP  RH WIND       PRES   REMARKS
OTTAWA         MOSUNNY   32  18  55 NW17G29   30.00R

______KEY______
VSB  - VISIBILITY IN MILES
WCI  - WIND CHILL INDEX
HX   - HEAT INDEX
$$



USA.gov is the U.S. government's official web portal to all federal, state and local government web resources and services.